Location: Pedholt
(56.0260°N, 10.2097°E)
Time: 19:50:19
(UTC+00:00)

SR - Pass Details

Date: 05 August 2021
Orbit: 581 x 873 km, 66.7° (Epoch: 27 September)

Event Time Altitude Azimuth Distance (km) Brightness Sun altitude
Rises 10:43:42 0° 310° (NW) 3,238 ? 50.0°
Reaches altitude 10° 10:46:22 10° 319° (NW) 2,259 ? 50.1°
Maximum altitude 10:51:08 37° 27° (NNE) 1,075 ? 50.3°
Drops below altitude 10° 10:55:31 10° 95° (E) 2,075 ? 50.4°
Sets 10:57:52 0° 104° (ESE) 2,941 ? 50.5°
